Wind_Speed
9 9 10 10 11 11 12 12 13 13 14 14 14 15 16 16 16 14 12 12 12 13 14 14 14 15 14 13 12 10 10 10 9
9 10 10 12 12 13 13 14 14 15 16 17 17 17 17 18 18 18 16 14 13 13 15 18 17 18 17 16 15 12 13 14 13
10 11 13 12 13 13 14 13 13 14 15 16 17 18 19 19 19 19 19 18 17 16 17 20 22 22 20 18 17 16 15 15 15
11 12 13 13 13 14 14 14 14 14 14 14 15 15 17 18 19 20 20 19 16 18 18 19 20 21 20 18 17 17 16 16 16
13 13 14 15 15 15 15 15 15 15 14 13 13 13 14 15 15 15 15 14 14 17 18 19 21 21 21 17 16 16 15 16 17
12 14 15 16 16 16 16 17 16 16 15 14 13 12 13 13 13 15 15 13 11 14 18 18 17 17 16 15 14 13 13 14 14
13 13 14 15 15 16 17 17 18 17 16 16 14 13 13 12 12 12 14 16 15 15 14 16 19 21 23 23 23 20 19 19 17
12 13 14 15 15 16 16 15 15 16 16 15 14 12 12 12 12 12 11 12 12 15 17 18 19 22 24 23 21 19 19 21 21
11 14 16 16 17 17 17 16 16 15 15 14 13 11 11 11 12 11 10 11 14 16 18 21 22 24 23 20 19 20 21 21 21
13 16 18 19 19 19 18 17 17 18 17 14 13 13 11 11 11 11 11 12 12 15 17 18 18 14 14 13 15 17 18 18 17
14 18 20 20 20 19 18 19 18 18 18 15 14 13 12 11 12 11 10 10 12 14 15 12 9 8 8 10 12 13 13 12 14
15 18 20 20 20 19 18 17 17 17 17 15 14 12 9 7 8 9 9 10 9 7 10 13 11 9 7 6 6 7 7 7 8
15 17 19 19 19 19 18 18 18 19 19 16 13 9 5 5 6 6 9 9 10 11 13 13 14 11 7 4 5 6 6 6 6
15 18 19 19 19 19 19 19 20 21 20 18 12 6 4 5 5 6 7 7 9 11 11 14 16 14 6 6 7 7 7 5 6
15 17 18 18 18 18 18 18 19 21 21 18 9 5 4 5 4 5 6 9 11 15 10 14 20 9 7 8 7 6 6 3 5
16 17 16 17 17 18 19 19 19 19 22 19 5 3 2 2 3 3 5 6 7 10 11 14 16 15 8 9 7 5 5 4 5
15 15 15 15 15 16 17 18 18 18 20 20 12 5 2 2 4 6 6 6 6 8 9 10 14 17 23 9 6 5 7 7 7
14 13 13 13 14 15 16 17 17 17 15 16 11 7 5 16 7 9 10 9 9 10 11 13 16 19 17 15 8 10 10 9 8
12 12 13 13 14 15 15 16 16 16 15 12 11 11 12 6 10 10 13 12 14 14 15 16 16 15 10 13 13 12 14 13 9
13 15 15 15 15 15 16 15 15 16 15 14 13 13 12 10 11 20 16 14 15 19 20 18 12 8 9 12 14 13 15 13 11
Wind_Direction
338 336 333 329 325 321 316 312 308 304 297 291 286 283 283 283 287 287 287 278 272 291 296 298 295 299 298 292 284 279 283 285 289
340 336 330 325 321 317 310 306 303 300 296 293 290 286 280 277 278 280 279 276 273 276 279 284 280 287 288 285 281 274 274 278 279
338 332 328 329 327 323 317 313 309 303 299 293 289 286 283 280 279 279 276 273 269 267 268 275 278 277 278 280 277 272 268 266 273
341 339 339 339 336 327 327 322 317 312 306 303 298 293 290 287 283 280 277 271 267 256 255 271 272 272 275 278 277 273 270 268 270
345 346 345 343 334 335 331 326 320 314 309 308 305 299 294 290 288 283 285 277 262 259 251 272 275 276 279 279 277 272 272 269 270
345 346 345 339 338 336 333 329 325 320 316 313 310 309 309 307 297 284 280 275 272 267 258 270 274 275 283 294 285 278 276 274 274
350 346 342 337 338 337 334 330 326 324 319 316 312 308 310 315 315 309 292 280 277 277 278 279 280 286 290 291 289 284 280 278 275
353 346 346 349 345 341 338 333 331 329 323 320 315 312 310 316 319 316 310 299 288 274 274 279 284 288 289 292 284 279 277 278 275
359 2 360 353 349 348 343 340 339 338 332 322 314 307 311 316 318 318 320 311 301 295 285 281 284 284 288 284 276 276 282 284 282
8 5 0 355 352 347 346 342 340 341 340 331 317 305 302 306 310 312 313 311 312 306 302 299 297 289 280 280 281 282 285 287 287
4 2 359 357 353 351 348 345 344 343 342 338 325 317 306 302 306 317 318 310 311 309 310 315 317 306 305 298 298 295 293 290 294
356 356 356 354 351 349 347 346 344 343 343 340 332 317 313 319 309 316 321 318 307 320 315 325 323 323 322 352 338 307 308 314 326
347 349 349 351 351 347 347 347 349 349 350 346 344 335 343 326 340 341 336 319 311 306 308 316 317 316 302 324 285 298 305 335 339
337 342 344 346 347 346 346 350 350 351 356 353 351 352 29 32 34 350 353 347 347 349 342 341 340 326 329 322 310 303 318 347 333
331 336 339 341 344 344 342 346 353 353 356 2 13 55 77 58 42 10 348 341 352 1 4 352 342 353 338 332 314 309 319 329 315
324 331 337 339 341 342 341 344 350 354 356 6 12 49 74 40 1 324 315 320 345 347 344 337 340 340 329 326 325 321 311 298 278
324 331 338 340 341 342 336 340 345 354 357 360 359 354 285 237 254 258 284 272 296 301 314 324 338 334 336 319 328 329 319 304 321
325 331 336 340 340 342 337 337 338 340 356 354 1 343 328 328 228 233 248 267 277 286 295 304 314 325 318 336 353 331 321 313 307
324 327 327 328 328 330 331 330 329 329 336 342 335 326 311 325 318 250 250 266 272 290 294 298 306 323 312 321 322 321 324 323 305
319 318 317 316 314 315 317 318 317 317 318 320 320 319 318 301 277 301 316 287 276 275 285 289 292 305 306 309 312 311 324 320 321
Height
1550 1549 1547 1546 1544 1543 1541 1539 1538 1536 1535 1534 1533 1532 1531 1530 1530 1530 1530 1529 1529 1528 1527 1526 1526 1526 1525 1524 1523 1523 1523 1522 1522
1549 1548 1546 1544 1542 1540 1538 1537 1535 1534 1532 1531 1529 1528 1527 1526 1526 1526 1526 1526 1525 1525 1524 1523 1524 1523 1522 1521 1521 1520 1521 1520 1520
1548 1546 1544 1542 1540 1538 1536 1534 1532 1530 1529 1527 1526 1525 1523 1522 1522 1521 1521 1521 1522 1522 1522 1521 1520 1519 1518 1518 1518 1517 1517 1517 1516
1546 1544 1542 1540 1538 1536 1534 1532 1530 1528 1526 1524 1523 1521 1520 1518 1518 1517 1516 1516 1516 1516 1517 1517 1516 1516 1515 1514 1514 1514 1513 1513 1513
1545 1543 1541 1539 1537 1535 1532 1530 1527 1525 1523 1521 1519 1518 1516 1515 1514 1513 1512 1512 1512 1512 1513 1512 1512 1512 1512 1511 1510 1509 1509 1509 1509
1545 1543 1540 1538 1535 1533 1530 1527 1525 1522 1520 1518 1517 1515 1514 1513 1511 1511 1510 1509 1510 1509 1509 1509 1508 1508 1508 1508 1507 1507 1506 1506 1506
1545 1542 1540 1537 1534 1531 1529 1526 1523 1521 1518 1516 1515 1513 1512 1510 1509 1508 1507 1507 1507 1507 1506 1505 1505 1505 1505 1505 1505 1504 1504 1503 1502
1544 1542 1540 1537 1534 1531 1528 1525 1522 1519 1516 1514 1512 1511 1510 1508 1507 1506 1505 1504 1504 1504 1503 1503 1502 1501 1501 1501 1501 1501 1500 1499 1498
1545 1542 1539 1536 1532 1529 1526 1524 1521 1518 1515 1513 1510 1509 1508 1507 1506 1504 1503 1503 1502 1501 1500 1500 1499 1498 1498 1498 1498 1497 1496 1495 1494
1543 1541 1538 1535 1532 1529 1526 1523 1520 1517 1515 1512 1509 1507 1506 1505 1503 1502 1502 1502 1501 1500 1498 1496 1495 1494 1494 1494 1493 1493 1492 1491 1490
1542 1540 1537 1534 1530 1527 1524 1522 1518 1516 1513 1510 1508 1506 1504 1503 1502 1501 1501 1501 1500 1499 1496 1493 1492 1491 1492 1491 1490 1489 1489 1488 1487
1541 1539 1536 1533 1529 1526 1524 1521 1518 1515 1512 1508 1505 1503 1502 1501 1501 1500 1500 1499 1499 1498 1495 1493 1491 1490 1490 1489 1489 1488 1488 1487 1486
1540 1538 1535 1532 1528 1525 1523 1520 1517 1513 1509 1506 1503 1501 1501 1501 1500 1500 1499 1500 1498 1497 1494 1492 1490 1489 1488 1487 1487 1486 1486 1485 1484
1539 1537 1534 1531 1528 1525 1522 1519 1515 1512 1508 1504 1502 1500 1500 1501 1500 1500 1500 1499 1498 1496 1494 1491 1489 1486 1485 1484 1484 1483 1483 1483 1483
1538 1535 1533 1530 1527 1525 1522 1519 1517 1512 1509 1505 1502 1500 1501 1501 1501 1500 1500 1499 1498 1495 1493 1491 1488 1485 1484 1482 1481 1481 1481 1481 1481
1536 1534 1531 1528 1526 1524 1521 1518 1516 1513 1509 1506 1504 1501 1501 1501 1501 1501 1500 1498 1497 1496 1494 1492 1489 1485 1483 1481 1479 1479 1479 1478 1478
1534 1532 1529 1527 1525 1523 1521 1518 1515 1513 1509 1508 1504 1502 1502 1501 1500 1499 1499 1498 1496 1495 1493 1491 1489 1486 1483 1480 1478 1478 1477 1476 1476
1532 1530 1528 1526 1524 1521 1519 1516 1515 1513 1510 1509 1509 1506 1503 1500 1497 1496 1496 1495 1494 1493 1491 1489 1487 1485 1482 1480 1478 1477 1476 1474 1472
1530 1528 1526 1525 1522 1520 1518 1515 1513 1512 1510 1508 1508 1507 1505 1503 1498 1495 1494 1493 1491 1490 1488 1486 1484 1482 1481 1479 1477 1476 1474 1472 1470
1528 1526 1524 1522 1520 1518 1516 1513 1511 1509 1508 1506 1505 1504 1504 1502 1500 1494 1492 1491 1489 1487 1485 1482 1482 1481 1480 1478 1476 1474 1472 1470 1468